Location: Molveno
(46.1500°N, 10.9667°E)
Time: 08:03:52
(UTC+00:00)

YAOGAN 11 - Pass Details

Date: 05 July 2020
Orbit: 615 x 668 km, 98.3° (Epoch: 05 August)

Event Time Altitude Azimuth Distance (km) Brightness Sun altitude
Exits shadow 23:09:09 49° 133° (SE) 810 4.3 -21.1°
Maximum altitude 23:10:08 68° 73° (ENE) 684 4.2 -21.1°
Drops below altitude 10° 23:14:32 10° 351° (N) 2,037 7.9 -21.2°
Sets 23:16:47 0° 349° (N) 2,960 9.0 -21.2°
